| time (UTC) | temp C | wind direction | speed KPH | gust KPH | rain 1hr cm | rain 24hr cm | rain mn cm | humidity % | barometer mb |
| 20260504081754 | 16 | 27 | 0.0 | 0.0 | 0.00 | 0.00 | 0.00 | 86 | 1018.4 |
| 20260504081250 | 16 | 36 | 0.0 | 0.0 | 0.00 | 0.00 | 0.00 | 86 | 1018.3 |
| 20260504080747 | 16 | 37 | 0.0 | 0.0 | 0.00 | 0.00 | 0.00 | 86 | 1018.3 |
| 20260504080243 | 16 | 51 | 0.0 | 0.0 | 0.00 | 0.00 | 0.00 | 86 | 1018.2 |
| 20260504070211 | 17 | 24 | 0.0 | 0.0 | 0.00 | 0.00 | 0.00 | 84 | 1018.7 |
| 20260504060131 | 18 | 20 | 0.0 | 0.0 | 0.00 | 0.00 | 0.00 | 83 | 1018.9 |
| 20260504050600 | 18 | 49 | 0.0 | 0.0 | 0.00 | 0.00 | 0.00 | 81 | 1019.3 |
| 20260504045554 | 18 | 58 | 0.0 | 0.0 | 0.00 | 0.00 | 0.00 | 80 | 1019.3 |
| 20260504045049 | 18 | 58 | 0.0 | 0.0 | 0.00 | 0.00 | 0.00 | 80 | 1019.4 |
| 20260504044547 | 19 | 58 | 0.0 | 0.0 | 0.00 | 0.00 | 0.00 | 80 | 1019.7 |
| 20260504044043 | 19 | 97 | 0.0 | 0.0 | 0.00 | 0.00 | 0.00 | 80 | 1019.8 |
| 20260504043540 | 19 | 59 | 0.0 | 0.0 | 0.00 | 0.00 | 0.00 | 80 | 1019.9 |
| 20260504043038 | 19 | 43 | 0.0 | 0.0 | 0.00 | 0.00 | 0.00 | 80 | 1019.8 |
| 20260504042535 | 19 | 41 | 0.0 | 0.0 | 0.00 | 0.00 | 0.00 | 80 | 1019.5 |
| 20260504042032 | 19 | 35 | 0.0 | 0.0 | 0.00 | 0.00 | 0.00 | 79 | 1019.5 |
| 20260504041527 | 19 | 61 | 0.0 | 0.0 | 0.00 | 0.00 | 0.00 | 79 | 1019.4 |
| 20260504041023 | 20 | 43 | 0.0 | 0.0 | 0.00 | 0.00 | 0.00 | 79 | 1019.5 |
| 20260504040521 | 20 | 72 | 0.0 | 0.0 | 0.00 | 0.00 | 0.00 | 79 | 1019.5 |
| 20260504040018 | 20 | 58 | 0.0 | 0.0 | 0.00 | 0.00 | 0.00 | 78 | 1019.7 |
| 20260504035515 | 20 | 68 | 0.0 | 0.0 | 0.00 | 0.00 | 0.00 | 78 | 1019.7 |
| 20260504035011 | 20 | 74 | 0.0 | 0.0 | 0.00 | 0.00 | 0.00 | 78 | 1019.7 |
| 20260504034509 | 20 | 53 | 0.0 | 0.0 | 0.00 | 0.00 | 0.00 | 78 | 1019.6 |
| 20260504034006 | 20 | 69 | 0.0 | 0.0 | 0.00 | 0.00 | 0.00 | 78 | 1019.7 |
| 20260504033503 | 19 | 69 | 0.0 | 0.0 | 0.00 | 0.00 | 0.00 | 78 | 1019.7 |
| 20260504033000 | 19 | 104 | 0.0 | 0.0 | 0.00 | 0.00 | 0.00 | 77 | 1019.3 |
| 20260504032457 | 20 | 73 | 0.0 | 0.0 | 0.00 | 0.00 | 0.00 | 77 | 1019.4 |
| 20260504031954 | 20 | 91 | 0.0 | 0.0 | 0.00 | 0.00 | 0.00 | 77 | 1019.5 |
| 20260504031451 | 20 | 82 | 0.0 | 0.0 | 0.00 | 0.00 | 0.00 | 76 | 1019.5 |
| 20260504030947 | 20 | 72 | 0.0 | 0.0 | 0.00 | 0.00 | 0.00 | 76 | 1019.5 |
| 20260504030445 | 20 | 127 | 0.0 | 0.0 | 0.00 | 0.00 | 0.00 | 76 | 1019.5 |
| 20260504025940 | 20 | 88 | 0.0 | 0.0 | 0.00 | 0.00 | 0.00 | 75 | 1019.5 |
| 20260504025437 | 20 | 64 | 0.0 | 0.0 | 0.00 | 0.00 | 0.00 | 75 | 1019.5 |
| 20260504024935 | 20 | 76 | 0.0 | 0.0 | 0.00 | 0.00 | 0.00 | 75 | 1019.4 |
| 20260504024432 | 20 | 82 | 0.0 | 0.0 | 0.00 | 0.00 | 0.00 | 75 | 1019.2 |
| 20260504023929 | 20 | 82 | 0.0 | 0.0 | 0.00 | 0.00 | 0.00 | 75 | 1019.4 |
| 20260504023425 | 19 | 101 | 0.0 | 0.0 | 0.00 | 0.00 | 0.00 | 75 | 1019.2 |
| 20260504022921 | 19 | 74 | 0.0 | 0.0 | 0.00 | 0.00 | 0.00 | 75 | 1019.5 |
| 20260504022417 | 19 | 131 | 0.0 | 0.0 | 0.00 | 0.00 | 0.00 | 75 | 1019.5 |
| 20260504021914 | 19 | 124 | 0.0 | 0.0 | 0.00 | 0.00 | 0.00 | 75 | 1019.5 |
| 20260504021411 | 19 | 85 | 0.0 | 0.0 | 0.00 | 0.00 | 0.00 | 75 | 1019.3 |
| 20260504020908 | 20 | 78 | 0.0 | 0.0 | 0.00 | 0.00 | 0.00 | 74 | 1019.1 |
| 20260504020404 | 20 | 107 | 0.0 | 0.0 | 0.00 | 0.00 | 0.00 | 74 | 1019.3 |
| 20260504015855 | 20 | 90 | 0.0 | 0.0 | 0.00 | 0.00 | 0.00 | 73 | 1018.9 |
| 20260504015351 | 20 | 107 | 0.0 | 0.0 | 0.00 | 0.00 | 0.00 | 74 | 1018.9 |
| 20260504014847 | 20 | 87 | 0.0 | 0.0 | 0.00 | 0.00 | 0.00 | 73 | 1018.9 |
| 20260504014343 | 20 | 103 | 0.0 | 0.0 | 0.00 | 0.00 | 0.00 | 73 | 1019.0 |
| 20260504013842 | 20 | 105 | 0.0 | 0.0 | 0.00 | 0.00 | 0.00 | 72 | 1018.8 |
| 20260504013339 | 20 | 92 | 0.0 | 0.0 | 0.00 | 0.00 | 0.00 | 72 | 1018.8 |
| 20260504012836 | 20 | 115 | 0.0 | 0.0 | 0.00 | 0.00 | 0.00 | 72 | 1018.6 |
| 20260504012334 | 20 | 68 | 0.0 | 0.0 | 0.00 | 0.00 | 0.00 | 71 | 1018.6 |
| 20260504011831 | 20 | 129 | 0.0 | 0.0 | 0.00 | 0.00 | 0.00 | 71 | 1018.5 |
| 20260504011327 | 21 | 80 | 0.0 | 0.0 | 0.00 | 0.00 | 0.00 | 71 | 1018.5 |
| 20260504010823 | 21 | 78 | 0.0 | 0.0 | 0.00 | 0.00 | 0.00 | 70 | 1018.4 |
| 20260504010319 | 21 | 81 | 0.0 | 0.0 | 0.00 | 0.00 | 0.00 | 70 | 1018.4 |
| 20260504005815 | 21 | 115 | 0.0 | 0.0 | 0.00 | 0.00 | 0.00 | 69 | 1018.5 |
| 20260504005313 | 21 | 74 | 0.0 | 0.0 | 0.00 | 0.00 | 0.00 | 68 | 1018.4 |
| 20260504004810 | 21 | 91 | 0.0 | 1.6 | 0.00 | 0.00 | 0.00 | 67 | 1018.3 |
| 20260504004308 | 21 | 101 | 0.0 | 0.0 | 0.00 | 0.00 | 0.00 | 66 | 1018.2 |
| 20260504003804 | 21 | 93 | 0.0 | 1.6 | 0.00 | 0.00 | 0.00 | 66 | 1018.0 |
| 20260504003301 | 21 | 72 | 0.0 | 0.0 | 0.00 | 0.00 | 0.00 | 66 | 1018.0 |
| 20260504002757 | 22 | 90 | 0.0 | 0.0 | 0.00 | 0.00 | 0.00 | 65 | 1018.1 |
| 20260504002254 | 22 | 62 | 0.0 | 0.0 | 0.00 | 0.00 | 0.00 | 64 | 1018.2 |
| 20260504001752 | 22 | 83 | 0.0 | 0.0 | 0.00 | 0.00 | 0.00 | 64 | 1018.1 |
| 20260504001249 | 22 | 77 | 0.0 | 1.6 | 0.00 | 0.00 | 0.00 | 63 | 1018.1 |
| 20260504000746 | 22 | 52 | 0.0 | 0.0 | 0.00 | 0.00 | 0.00 | 62 | 1018.2 |
| 20260504000242 | 22 | 81 | 0.0 | 1.6 | 0.00 | 0.00 | 0.00 | 61 | 1018.1 |
| 20260503235741 | 22 | 86 | 0.0 | 3.2 | 0.00 | 0.00 | 0.00 | 61 | 1018.2 |
| 20260503235238 | 22 | 81 | 0.0 | 0.0 | 0.00 | 0.00 | 0.00 | 61 | 1017.9 |
| 20260503234735 | 22 | 67 | 0.0 | 0.0 | 0.00 | 0.00 | 0.00 | 61 | 1017.8 |
| 20260503234233 | 22 | 75 | 0.0 | 0.0 | 0.00 | 0.00 | 0.00 | 61 | 1018.0 |
| 20260503233729 | 22 | 65 | 0.0 | 0.0 | 0.00 | 0.00 | 0.00 | 60 | 1017.8 |
| 20260503233225 | 23 | 140 | 0.0 | 1.6 | 0.00 | 0.00 | 0.00 | 61 | 1017.7 |
| 20260503232723 | 23 | 90 | 0.0 | 0.0 | 0.00 | 0.00 | 0.00 | 60 | 1017.6 |
| 20260503232220 | 23 | 76 | 0.0 | 0.0 | 0.00 | 0.00 | 0.00 | 60 | 1017.6 |
| 20260503231718 | 23 | 84 | 0.0 | 0.0 | 0.00 | 0.00 | 0.00 | 59 | 1017.5 |
| 20260503231215 | 23 | 116 | 0.0 | 0.0 | 0.00 | 0.00 | 0.00 | 59 | 1017.4 |
| 20260503230711 | 23 | 74 | 0.0 | 3.2 | 0.00 | 0.00 | 0.00 | 59 | 1017.5 |
| 20260503230208 | 23 | 69 | 0.0 | 0.0 | 0.00 | 0.00 | 0.00 | 60 | 1017.7 |
| 20260503225706 | 23 | 84 | 0.0 | 0.0 | 0.00 | 0.00 | 0.00 | 60 | 1017.5 |
| 20260503225206 | 24 | 75 | 0.0 | 1.6 | 0.00 | 0.00 | 0.00 | 60 | 1017.5 |
| 20260503224703 | 23 | 137 | 0.0 | 0.0 | 0.00 | 0.00 | 0.00 | 58 | 1017.6 |
| 20260503224201 | 24 | 107 | 0.0 | 0.0 | 0.00 | 0.00 | 0.00 | 57 | 1017.6 |
| 20260503223658 | 24 | 83 | 0.0 | 1.6 | 0.00 | 0.00 | 0.00 | 58 | 1017.6 |
| 20260503223155 | 25 | 94 | 0.0 | 0.0 | 0.00 | 0.00 | 0.00 | 56 | 1017.5 |
| 20260503222652 | 25 | 88 | 0.0 | 0.0 | 0.00 | 0.00 | 0.00 | 57 | 1017.5 |
| 20260503222150 | 24 | 108 | 0.0 | 0.0 | 0.00 | 0.00 | 0.00 | 56 | 1017.7 |
| 20260503221648 | 23 | 77 | 0.0 | 0.0 | 0.00 | 0.00 | 0.00 | 58 | 1017.7 |
| 20260503221145 | 24 | 75 | 0.0 | 0.0 | 0.00 | 0.00 | 0.00 | 57 | 1017.5 |
| 20260503220641 | 24 | 76 | 0.0 | 0.0 | 0.00 | 0.00 | 0.00 | 57 | 1017.7 |
| 20260503220138 | 24 | 80 | 0.0 | 3.2 | 0.00 | 0.00 | 0.00 | 57 | 1017.5 |
| 20260503215636 | 24 | 134 | 0.0 | 0.0 | 0.00 | 0.00 | 0.00 | 57 | 1017.6 |
| 20260503215132 | 24 | 110 | 0.0 | 0.0 | 0.00 | 0.00 | 0.00 | 57 | 1017.5 |
| 20260503214631 | 25 | 81 | 0.0 | 1.6 | 0.00 | 0.00 | 0.00 | 54 | 1017.4 |
| 20260503214126 | 25 | 70 | 0.0 | 0.0 | 0.00 | 0.00 | 0.00 | 54 | 1017.6 |
| 20260503213626 | 25 | 84 | 0.0 | 0.0 | 0.00 | 0.00 | 0.00 | 56 | 1017.4 |
| 20260503213122 | 25 | 90 | 0.0 | 0.0 | 0.00 | 0.00 | 0.00 | 54 | 1017.5 |
| 20260503212620 | 25 | 65 | 0.0 | 3.2 | 0.00 | 0.00 | 0.00 | 56 | 1017.4 |
| 20260503212117 | 25 | 64 | 0.0 | 0.0 | 0.00 | 0.00 | 0.00 | 56 | 1017.5 |
| 20260503211614 | 26 | 85 | 0.0 | 0.0 | 0.00 | 0.00 | 0.00 | 54 | 1017.3 |
| 20260503211110 | 26 | 75 | 0.0 | 1.6 | 0.00 | 0.00 | 0.00 | 52 | 1017.3 |
| 20260503210606 | 25 | 70 | 0.0 | 0.0 | 0.00 | 0.00 | 0.00 | 53 | 1017.3 |
| 20260503205559 | 26 | 45 | 0.0 | 0.0 | 0.00 | 0.00 | 0.00 | 53 | 1017.4 |
| 20260503205055 | 25 | 93 | 0.0 | 0.0 | 0.00 | 0.00 | 0.00 | 54 | 1017.5 |
| 20260503204552 | 25 | 6 | 0.0 | 0.0 | 0.00 | 0.00 | 0.00 | 53 | 1017.6 |
| 20260503204049 | 25 | 69 | 0.0 | 0.0 | 0.00 | 0.00 | 0.00 | 54 | 1018.0 |
| 20260503203546 | 25 | 41 | 0.0 | 3.2 | 0.00 | 0.00 | 0.00 | 56 | 1017.5 |
| 20260503203043 | 26 | 63 | 0.0 | 0.0 | 0.00 | 0.00 | 0.00 | 56 | 1017.7 |
| 20260503202541 | 26 | 124 | 0.0 | 1.6 | 0.00 | 0.00 | 0.00 | 55 | 1017.7 |
| 20260503202039 | 25 | 51 | 0.0 | 0.0 | 0.00 | 0.00 | 0.00 | 55 | 1017.9 |
| 20260503201537 | 25 | 54 | 0.0 | 1.6 | 0.00 | 0.00 | 0.00 | 54 | 1017.9 |
| 20260503201034 | 25 | 133 | 0.0 | 0.0 | 0.00 | 0.00 | 0.00 | 53 | 1018.0 |
| 20260503200530 | 25 | 92 | 0.0 | 0.0 | 0.00 | 0.00 | 0.00 | 55 | 1018.0 |
| 20260503200027 | 25 | 82 | 0.0 | 1.6 | 0.00 | 0.00 | 0.00 | 54 | 1017.9 |
| 20260503195524 | 25 | 71 | 0.0 | 1.6 | 0.00 | 0.00 | 0.00 | 54 | 1018.0 |
| 20260503195021 | 25 | 21 | 0.0 | 3.2 | 0.00 | 0.00 | 0.00 | 56 | 1018.2 |
| 20260503194518 | 26 | 70 | 0.0 | 0.0 | 0.00 | 0.00 | 0.00 | 55 | 1018.0 |
| 20260503194018 | 25 | 105 | 0.0 | 4.8 | 0.00 | 0.00 | 0.00 | 54 | 1018.5 |
| 20260503193515 | 25 | 97 | 0.0 | 0.0 | 0.00 | 0.00 | 0.00 | 56 | 1018.3 |
| 20260503193010 | 25 | 95 | 0.0 | 0.0 | 0.00 | 0.00 | 0.00 | 56 | 1018.3 |
| 20260503192506 | 25 | 64 | 0.0 | 0.0 | 0.00 | 0.00 | 0.00 | 56 | 1018.4 |
| 20260503192002 | 26 | 135 | 0.0 | 1.6 | 0.00 | 0.00 | 0.00 | 56 | 1018.5 |
| 20260503191459 | 27 | 72 | 0.0 | 4.8 | 0.00 | 0.00 | 0.00 | 54 | 1018.7 |
| 20260503190955 | 26 | 143 | 0.0 | 0.0 | 0.00 | 0.00 | 0.00 | 54 | 1018.9 |
| 20260503190453 | 25 | 12 | 0.0 | 0.0 | 0.00 | 0.00 | 0.00 | 56 | 1018.9 |
| 20260503185950 | 25 | 97 | 0.0 | 1.6 | 0.00 | 0.00 | 0.00 | 58 | 1019.1 |
| 20260503185446 | 25 | 79 | 0.0 | 0.0 | 0.00 | 0.00 | 0.00 | 59 | 1019.0 |
| 20260503184946 | 24 | 72 | 0.0 | 3.2 | 0.00 | 0.00 | 0.00 | 60 | 1019.3 |
| 20260503184443 | 24 | 144 | 0.0 | 1.6 | 0.00 | 0.00 | 0.00 | 59 | 1019.2 |
| 20260503183939 | 25 | 102 | 0.0 | 0.0 | 0.00 | 0.00 | 0.00 | 56 | 1019.3 |
| 20260503183436 | 25 | 94 | 0.0 | 0.0 | 0.00 | 0.00 | 0.00 | 59 | 1019.3 |
| 20260503182933 | 25 | 79 | 0.0 | 1.6 | 0.00 | 0.00 | 0.00 | 58 | 1019.4 |
| 20260503182432 | 25 | 74 | 0.0 | 0.0 | 0.00 | 0.00 | 0.00 | 60 | 1019.4 |
| 20260503181929 | 25 | 44 | 0.0 | 8.0 | 0.00 | 0.00 | 0.00 | 61 | 1019.4 |
| 20260503181426 | 24 | 108 | 0.0 | 0.0 | 0.00 | 0.00 | 0.00 | 61 | 1019.4 |
| 20260503180921 | 23 | 129 | 0.0 | 1.6 | 0.00 | 0.00 | 0.00 | 62 | 1019.4 |
| 20260503180420 | 23 | 113 | 0.0 | 8.0 | 0.00 | 0.00 | 0.00 | 62 | 1019.6 |
| 20260503175916 | 25 | 105 | 0.0 | 0.0 | 0.00 | 0.00 | 0.00 | 61 | 1019.6 |
| 20260503175415 | 24 | 70 | 0.0 | 8.0 | 0.00 | 0.00 | 0.00 | 62 | 1019.6 |
| 20260503174910 | 23 | 125 | 0.0 | 0.0 | 0.00 | 0.00 | 0.00 | 63 | 1019.7 |
| 20260503174408 | 25 | 78 | 0.0 | 0.0 | 0.00 | 0.00 | 0.00 | 63 | 1019.9 |
| 20260503173903 | 24 | 84 | 0.0 | 4.8 | 0.00 | 0.00 | 0.00 | 63 | 1020.0 |
| 20260503173359 | 23 | 108 | 0.0 | 0.0 | 0.00 | 0.00 | 0.00 | 66 | 1019.9 |
| 20260503172856 | 24 | 103 | 0.0 | 3.2 | 0.00 | 0.00 | 0.00 | 64 | 1020.0 |
| 20260503172354 | 23 | 70 | 0.0 | 1.6 | 0.00 | 0.00 | 0.00 | 65 | 1020.0 |
| 20260503171849 | 23 | 68 | 0.0 | 3.2 | 0.00 | 0.00 | 0.00 | 66 | 1019.9 |
| 20260503171346 | 22 | 58 | 0.0 | 1.6 | 0.00 | 0.00 | 0.00 | 69 | 1019.9 |
| 20260503170844 | 23 | 126 | 0.0 | 1.6 | 0.00 | 0.00 | 0.00 | 68 | 1020.0 |
| 20260503170340 | 23 | 67 | 0.0 | 0.0 | 0.00 | 0.00 | 0.00 | 68 | 1020.2 |
| 20260503150732 | 21 | 90 | 0.0 | 4.8 | 0.00 | 0.00 | 0.00 | 73 | 1020.4 |
| 20260503150229 | 21 | 78 | 0.0 | 3.2 | 0.00 | 0.00 | 0.00 | 74 | 1020.3 |
| 20260503140153 | 18 | 19 | 1.6 | 3.2 | 0.00 | 0.00 | 0.00 | 80 | 1020.0 |
| 20260503131117 | 17 | 2 | 0.0 | 0.0 | 0.00 | 0.00 | 0.00 | 86 | 1019.9 |
| 20260503130615 | 16 | 37 | 0.0 | 1.6 | 0.00 | 0.00 | 0.00 | 87 | 1019.7 |
| 20260503130112 | 16 | 46 | 0.0 | 3.2 | 0.00 | 0.00 | 0.00 | 89 | 1019.7 |
| 20260503110504 | 15 | 33 | 0.0 | 0.0 | 0.00 | 0.00 | 0.00 | 93 | 1018.7 |